Location: Central Coast NSW, Australia
(33.2407°S, 151.4316°E)
Time: 20:04:31
(UTC+11:00)

ISS - Visible Passes

Search period start: 18 February 2018 00:00
Search period end: 28 February 2018 00:00
Orbit: 403 x 407 km, 51.6° (Epoch: 19 February)

Date Brightness Start Highest point End Pass type
(mag) Time Alt. Az. Time Alt. Az. Time Alt. Az.
18 Feb -0.3 04:12:53 10° SSE 04:13:41 11° SSE 04:14:29 10° SE visible
18 Feb -3.7 05:47:18 10° SW 05:50:39 80° SE 05:53:57 10° NE visible
18 Feb -1.4 20:48:44 10° N 20:48:52 11° N 20:48:52 11° N visible
19 Feb -2.2 04:55:17 10° SSW 04:58:25 37° SE 05:01:32 10° ENE visible
19 Feb -2.7 21:31:51 10° NW 21:34:09 40° WNW 21:34:09 40° WNW visible
20 Feb -0.9 04:06:56 19° SE 04:06:56 19° SE 04:08:40 10° E visible
20 Feb -3.1 05:39:45 11° WSW 05:42:38 32° NW 05:45:38 10° NNE visible
20 Feb -3.7 20:39:44 10° NNW 20:42:58 53° NE 20:46:04 11° SE visible
20 Feb -0.5 22:17:37 10° WSW 22:18:50 14° SW 22:18:50 14° SW visible
21 Feb -2.2 04:52:11 27° NE 04:52:11 27° NE 04:53:48 10° NE visible
21 Feb -1.5 21:24:26 10° W 21:27:16 25° SW 21:30:06 10° SSE visible
22 Feb -2.8 20:31:43 10° WNW 20:34:57 49° SW 20:38:13 10° SE visible
23 Feb -0.6 21:17:56 10° WSW 21:19:32 13° SSW 21:21:08 10° S visible
24 Feb -1.1 20:24:26 10° W 20:27:03 21° SW 20:29:41 10° SSE visible
26 Feb -0.6 20:18:21 10° SW 20:19:17 11° SSW 20:20:12 10° SSW visible
